[[{"header":{"parameterUnit":"m.s-1","parameterCategory":1,"la1":30.2991,"la2":30.254,"lo1":-89.0895,"lo2":-89.0444,"dy":0.0017,"dx":0.0017,"nx":28,"ny":28,"refTime":"2024-06-20T09:00:00:Z","depth":0,"parameterNumber":2,"parameterNumberName":"U-component_of_WINDS"},"data":[0,0,0,0,0,0,0,0,0,0,0,0,0,0,0,0,0,0,0,0,0,0,0,0,0,0,0,0,0,0,0,0,0,0,0,0,0,0,0,0,0,0,0,0,0,0,0,0,0,0,0,0,0,0,0,0,0,0,-4.3179,-4.3178,0,-4.3077,-4.3076,-4.3075,-4.2802,-4.2796,-4.279,-4.2784,-4.2687,-4.269,-4.2693,0,0,0,0,0,0,0,0,0,0,0,0,0,-4.3142,-4.3144,-4.3179,-4.3178,-4.3176,-4.3078,-4.3076,-4.3075,-4.2803,-4.2796,-4.2788,-4.2782,-4.2686,-4.269,-4.2693,0,0,0,0,0,0,0,0,0,0,0,0,0,-4.3112,-4.3145,-4.3179,-4.3028,-4.3014,-4.3078,-4.3076,-4.3074,-4.2804,-4.2795,-4.2786,-4.2778,-4.2685,-4.2689,-4.2694,-4.2897,0,0,-4.2707,-4.2709,0,0,0,0,0,0,0,0,-4.3114,-4.3113,-4.3052,-4.3039,-4.3023,-4.2943,-4.3027,-4.3015,-4.2806,-4.2884,-4.2784,-4.2774,-4.278,-4.2776,-4.2776,-4.2893,-4.2888,-4.2707,-4.271,-4.2712,-4.2713,0,0,0,0,0,0,0,-4.3116,-4.3116,-4.3139,-4.3051,-4.3034,-4.2968,-4.2954,-4.3024,-4.2883,-4.2877,-4.2857,-4.2848,-4.277,-4.2773,-4.2772,-4.2887,-4.2707,-4.2711,-4.2714,-4.2715,-4.3163,-4.3172,0,0,0,0,0,0,-4.3139,-4.312,-4.3142,-4.3136,-4.3047,-4.2976,-4.296,-4.2978,-4.2881,-4.2858,-4.2856,-4.2836,-4.277,-4.2767,-4.2768,-4.2997,-4.2712,-4.2716,-4.2718,-4.3154,-4.3165,-4.3175,0,0,0,0,0,0,-4.3139,-4.3144,-4.3146,-4.3122,-4.3117,-4.2985,-4.3008,-4.298,-4.2982,-4.2865,-4.2839,-4.2884,-4.2763,-4.2762,-4.2866,-4.299,-4.2718,-4.2722,-4.3143,-4.3157,-4.317,-4.3461,0,0,0,0,0,0,-4.314,-4.3145,-4.322,-4.3126,-4.312,-4.3246,-4.3016,-4.2985,-4.299,-4.2963,-4.2885,-4.2864,-4.2756,-4.2861,-4.287,-4.2991,-4.2725,-4.3131,-4.3149,-4.3166,-4.344,-4.3483,-4.352,0,0,0,0,0,-4.3139,-4.3308,-4.3226,-4.323,-4.321,-4.3253,-4.325,-4.312,-4.3001,-4.3076,-4.3,-4.2866,-4.2976,-4.2874,-4.2882,-4.3007,-4.3123,-4.3144,-4.3165,-4.3422,-4.3475,-4.352,0,0,0,0,0,0,-4.3423,-4.3293,-4.32,-4.3343,-4.3311,-4.3207,-4.3297,-4.3181,-4.3184,-4.3159,-4.3,-4.2985,-4.3111,-4.3069,-4.2958,-4.3198,-4.3027,-4.3051,-4.322,-4.3269,-4.3309,-4.3316,-4.2729,0,0,0,0,0,-4.3503,-4.3546,-4.3431,-4.3568,-4.3557,-4.3431,-4.3445,-4.3347,-4.3308,-4.3294,-4.3226,-4.3196,-4.3222,-4.3244,-4.3262,-4.3433,-4.3412,-4.3523,-4.3563,-4.3597,-4.3619,-4.3704,-4.3752,-4.3244,-4.3244,-4.3243,0,0,-4.3667,-4.3601,-4.3639,-4.3624,-4.3587,-4.3637,-4.3421,-4.3484,-4.3519,-4.3304,-4.3397,-4.3348,-4.3303,-4.3441,-4.3498,-4.341,-4.3754,-4.3623,-4.3651,-4.3654,-4.3731,-4.3779,-4.3822,-4.3258,-4.3256,-4.3253,0,0,-4.3991,-4.3946,-4.4054,-4.4022,-4.3968,-4.3883,-4.391,-4.3823,-4.378,-4.3871,-4.371,-4.3752,-4.3802,-4.3776,-4.377,-4.4084,-4.396,-4.4095,-4.4305,-4.4391,-4.4431,-4.4465,-4.4576,-4.4618,-4.4118,-4.4118,-4.4119,0,-4.4202,-4.4269,-4.4125,-4.4197,-4.4195,-4.4001,-4.4109,-4.4086,-4.4044,-4.4047,-4.3948,-4.4006,-4.3963,-4.4091,-4.4167,-4.417,-4.4195,-4.4102,-4.4436,-4.4469,-4.45,-4.4603,-4.4646,-4.4135,-4.4133,-4.4131,-4.413,0,-4.453,-4.458,-4.4674,-4.4634,-4.4643,-4.4734,-4.4605,-4.4632,-4.4535,-4.4461,-4.4556,-4.4496,-4.4499,-4.4522,-4.4429,-4.4638,-4.4584,-4.4464,-4.4289,-4.4567,-4.4662,-4.47,-4.4159,-4.4153,-4.4148,-4.4144,0,0,-4.503,-4.4908,-4.4945,-4.4924,-4.4851,-4.4887,-4.4969,-4.4969,-4.4994,-4.4972,-4.5037,-4.5084,-4.4971,-4.4964,-4.4866,-4.4942,-4.5193,-4.4811,-4.4807,-4.4883,-4.5418,-4.5508,-4.5556,-4.5111,-4.5118,-4.5124,-4.5421,0,-4.5334,-4.5464,-4.5337,-4.5494,-4.5537,-4.5353,-4.5424,-4.5388,-4.5322,-4.535,-4.5277,-4.5312,-4.5161,-4.5156,-4.5222,-4.5148,-4.5298,-4.5125,-4.517,-4.5174,-4.5185,-4.5605,-4.57,-4.5984,-4.5457,-4.5463,-4.5468,0,-4.5705,-4.5696,-4.5857,-4.5771,-4.5784,-4.5851,-4.5839,-4.5869,-4.5825,-4.5771,-4.5764,-4.5644,-4.572,-4.5551,-4.5654,-4.5539,-4.5551,-4.5518,-4.5525,-4.5523,-4.5336,-4.5613,-4.6071,-4.6113,-4.5525,-4.552,-4.5516,0,-4.6051,-4.608,-4.6178,-4.6166,-4.607,-4.6121,-4.6084,-4.603,-4.6038,-4.603,-4.6033,-4.6035,-4.6037,-4.6042,-4.5926,-4.5814,-4.6044,-4.5865,-4.6001,-4.6005,-4.6056,-4.6055,-4.6521,-4.6068,-4.6068,-4.6067,-4.6066,0,-4.6402,-4.6507,-4.6331,-4.6392,-4.6504,-4.6359,-4.6475,-4.6419,-4.6373,-4.6421,-4.6264,-4.6312,-4.6158,-4.6191,-4.6102,-4.62,-4.6203,-4.6162,-4.6136,-4.6174,-4.618,-4.6178,-4.6155,-4.6078,-4.6076,-4.6073,-4.6072,0,-4.6806,-4.6693,-4.6787,-4.6688,-4.6666,-4.6753,-4.6668,-4.6721,-4.6644,-4.6707,-4.6713,-4.6593,-4.6624,-4.651,-4.6523,-4.6462,-4.6607,-4.655,-4.6621,-4.6603,-4.6745,-4.6733,-4.7225,-4.7282,-4.6796,-4.6801,-4.6805,0,-4.7036,-4.7111,-4.7019,-4.7038,-4.7009,-4.7043,-4.7048,-4.6909,-4.6922,-4.6877,-4.6936,-4.6953,-4.6959,-4.7017,-4.6933,-4.6941,-4.6882,-4.7055,-4.6883,-4.6918,-4.6883,-4.6879,-4.6885,-4.709,-4.7096,-4.7101,-4.7105,0,-4.7456,-4.7396,-4.7409,-4.7404,-4.7414,-4.7404,-4.7383,-4.7409,-4.7259,-4.7282,-4.731,-4.7315,-4.7326,-4.7345,-4.7336,-4.7299,-4.7179,-4.716,-4.7191,-4.723,-4.7267,-4.7247,-4.6716,-4.7149,-4.7144,-4.7141,-4.7139,-4.7137,-4.7778,-4.7835,-4.7779,-4.7799,-4.7768,-4.7752,-4.7796,-4.7724,-4.7744,-4.774,-4.7658,-4.7702,-4.7656,-4.763,-4.7606,-4.764,-4.7559,-4.7606,-4.7617,-4.763,-4.7654,-4.7264,-4.7638,-4.7637,-4.7635,-4.7634,-4.7633,0,-4.8187,-4.8141,-4.8161,-4.8135,-4.8152,-4.8034,-4.8005,-4.8027,-4.8067,-4.8033,-4.8042,-4.8074,-4.8092,-4.8009,-4.8015,-4.8059,-4.8003,-4.8065,-4.8059,-4.8053,-4.7726,-4.7697,-4.8109,-4.8109,-4.8109,-4.8109,-4.8109,-4.8109,-4.8402,-4.8493,-4.8427,-4.8501,-4.8455,-4.8495,-4.8488,-4.8473,-4.8445,-4.8487,-4.85,-4.8444,-4.8391,-4.8392,-4.8404,-4.8379,-4.8389,-4.8469,-4.8426,-4.8122,-4.8076,-4.8032,-4.8003,-4.8473,-4.8474,-4.8749,-4.8751,-4.8753]},{"header":{"parameterUnit":"m.s-1","parameterCategory":1,"la1":30.2991,"la2":30.254,"lo1":-89.0895,"lo2":-89.0444,"dy":0.0017,"dx":0.0017,"nx":28,"ny":28,"refTime":"2024-06-20T09:00:00:Z","depth":0,"parameterNumber":3,"parameterNumberName":"V-component_of_WINDS"},"data":[0,0,0,0,0,0,0,0,0,0,0,0,0,0,0,0,0,0,0,0,0,0,0,0,0,0,0,0,0,0,0,0,0,0,0,0,0,0,0,0,0,0,0,0,0,0,0,0,0,0,0,0,0,0,0,0,0,0,-1.0059,-1.0061,0,-1.0194,-1.0196,-1.0197,-1.0312,-1.0313,-1.0315,-1.0316,-1.0454,-1.0457,-1.0459,0,0,0,0,0,0,0,0,0,0,0,0,0,-0.9899,-0.9901,-1.0059,-1.0061,-1.0062,-1.0194,-1.0196,-1.0197,-1.0312,-1.0313,-1.0315,-1.0316,-1.0453,-1.0456,-1.0459,0,0,0,0,0,0,0,0,0,0,0,0,0,-0.9995,-0.9902,-1.0059,-1.0135,-1.0144,-1.0193,-1.0196,-1.0198,-1.0312,-1.0313,-1.0315,-1.0317,-1.0452,-1.0456,-1.046,-1.0445,0,0,-1.0471,-1.0473,0,0,0,0,0,0,0,0,-0.9989,-1.0,-1.0122,-1.013,-1.0139,-1.0238,-1.019,-1.0281,-1.0311,-1.0248,-1.0316,-1.0318,-1.0381,-1.0391,-1.0412,-1.0451,-1.0457,-1.0472,-1.0474,-1.0475,-1.0476,0,0,0,0,0,0,0,-0.9982,-0.9995,-1.0113,-1.0124,-1.0134,-1.0162,-1.0178,-1.0208,-1.0302,-1.0253,-1.0262,-1.0276,-1.0386,-1.0408,-1.0416,-1.0459,-1.0471,-1.0475,-1.0477,-1.0479,-1.049,-1.0488,0,0,0,0,0,0,-0.9964,-0.9989,-1.0108,-1.0117,-1.0067,-1.0164,-1.0181,-1.0205,-1.0302,-1.0319,-1.0275,-1.0281,-1.04,-1.0411,-1.0421,-1.0408,-1.0475,-1.0479,-1.0481,-1.0492,-1.0489,-1.0487,0,0,0,0,0,0,-0.996,-0.9973,-1.0103,-1.0055,-1.0074,-1.0164,-1.019,-1.0206,-1.0228,-1.0318,-1.0335,-1.028,-1.0402,-1.0416,-1.0437,-1.0414,-1.0481,-1.0484,-1.0494,-1.0491,-1.0488,-1.0382,0,0,0,0,0,0,-0.9955,-0.9971,-0.9967,-1.0054,-1.0076,-1.0117,-1.0188,-1.0207,-1.0234,-1.0244,-1.0328,-1.0343,-1.0405,-1.0431,-1.0441,-1.0421,-1.0487,-1.0497,-1.0493,-1.0489,-1.0388,-1.0376,-1.0366,0,0,0,0,0,-0.9949,-0.9933,-0.9966,-0.998,-1.0072,-1.0115,-1.0128,-1.0199,-1.0232,-1.0228,-1.0285,-1.034,-1.0415,-1.0432,-1.0444,-1.0425,-1.0498,-1.0494,-1.049,-1.0393,-1.0379,-1.0366,0,0,0,0,0,0,-0.9842,-0.9946,-0.9984,-0.9996,-1.0046,-1.0135,-1.0132,-1.0182,-1.0224,-1.0231,-1.0318,-1.0336,-1.0347,-1.0389,-1.0406,-1.0414,-1.0464,-1.0462,-1.0387,-1.0373,-1.0362,-1.0352,-1.049,0,0,0,0,0,-0.9819,-0.9846,-0.9935,-0.9937,-0.9959,-1.0041,-1.0062,-1.0113,-1.0168,-1.019,-1.0249,-1.03,-1.0335,-1.0357,-1.0394,-1.0395,-1.0413,-1.0387,-1.0376,-1.0366,-1.0363,-1.0364,-1.0353,-1.0473,-1.0473,-1.0473,0,0,-0.9773,-0.9833,-0.9845,-0.9916,-0.9961,-0.9985,-1.0058,-1.0082,-1.0101,-1.0194,-1.0217,-1.0262,-1.0325,-1.0335,-1.0342,-1.037,-1.0334,-1.0361,-1.0352,-1.0355,-1.0358,-1.0347,-1.0336,-1.047,-1.0471,-1.0471,0,0,-0.9702,-0.9751,-0.9757,-0.9799,-0.9865,-0.9919,-0.992,-1.0001,-1.0034,-1.0058,-1.0128,-1.0151,-1.021,-1.0252,-1.028,-1.0221,-1.0272,-1.0231,-1.0172,-1.0172,-1.0162,-1.0154,-1.0131,-1.0122,-1.0227,-1.0227,-1.0227,0,-0.9637,-0.9677,-0.9753,-0.9772,-0.98,-0.9884,-0.9889,-0.9927,-1.0002,-1.0019,-1.0049,-1.0123,-1.0171,-1.0191,-1.0176,-1.0197,-1.02,-1.0222,-1.0157,-1.015,-1.0144,-1.0123,-1.0114,-1.0222,-1.0222,-1.0223,-1.0223,0,-0.9593,-0.9619,-0.9616,-0.9684,-0.9712,-0.9724,-0.98,-0.982,-0.9866,-0.9916,-0.9939,-1.0,-1.005,-1.0058,-1.0105,-1.0084,-1.0098,-1.0141,-1.0193,-1.0125,-1.0107,-1.01,-1.0213,-1.0215,-1.0217,-1.0219,0,0,-0.946,-0.9568,-0.9565,-0.9596,-0.9674,-0.9696,-0.971,-0.9758,-0.9772,-0.982,-0.9833,-0.988,-0.9919,-0.9951,-1.0003,-1.0003,-0.9949,-1.0046,-1.0049,-1.0025,-0.9927,-0.9893,-0.9883,-0.9984,-0.9983,-0.9982,-0.9921,0,-0.9401,-0.9431,-0.9498,-0.9508,-0.9532,-0.9611,-0.9623,-0.9671,-0.9718,-0.9744,-0.9796,-0.9827,-0.9877,-0.9897,-0.99,-0.9955,-0.9931,-0.9961,-0.9996,-0.9996,-0.9977,-0.9874,-0.9839,-0.9779,-0.9915,-0.9913,-0.9913,0,-0.9336,-0.9377,-0.9389,-0.9462,-0.9475,-0.9485,-0.9532,-0.9557,-0.9613,-0.9647,-0.968,-0.9737,-0.9755,-0.9803,-0.9828,-0.9846,-0.9865,-0.9894,-0.9893,-0.9899,-0.995,-0.9875,-0.9762,-0.9752,-0.9903,-0.9903,-0.9904,0,-0.9236,-0.9294,-0.9308,-0.9332,-0.9419,-0.9424,-0.946,-0.9517,-0.9541,-0.9582,-0.9598,-0.9641,-0.9665,-0.9697,-0.9763,-0.9791,-0.978,-0.9833,-0.9807,-0.9805,-0.9801,-0.98,-0.9687,-0.9814,-0.9814,-0.9814,-0.9814,0,-0.9162,-0.9165,-0.9264,-0.9272,-0.9277,-0.9354,-0.9357,-0.94,-0.945,-0.9467,-0.9539,-0.9553,-0.964,-0.9664,-0.9716,-0.9728,-0.9738,-0.9765,-0.9779,-0.9758,-0.9754,-0.9771,-0.9777,-0.9812,-0.9812,-0.9813,-0.9813,0,-0.9051,-0.9117,-0.9137,-0.9216,-0.9236,-0.9236,-0.9304,-0.9314,-0.9364,-0.9385,-0.9394,-0.9472,-0.9504,-0.9573,-0.9624,-0.9659,-0.9657,-0.9683,-0.9638,-0.9646,-0.9616,-0.9617,-0.9509,-0.9498,-0.9632,-0.963,-0.9629,0,-0.8999,-0.9003,-0.9082,-0.9098,-0.9131,-0.9157,-0.9181,-0.9255,-0.9277,-0.9338,-0.9341,-0.9378,-0.9412,-0.9459,-0.952,-0.9558,-0.9584,-0.9544,-0.9591,-0.9569,-0.9582,-0.958,-0.958,-0.9533,-0.9531,-0.953,-0.9529,0,-0.89,-0.8931,-0.8963,-0.9004,-0.903,-0.9067,-0.9108,-0.9117,-0.92,-0.9221,-0.9254,-0.928,-0.933,-0.9366,-0.9413,-0.945,-0.9502,-0.9513,-0.9509,-0.9488,-0.9461,-0.9473,-0.9608,-0.9515,-0.9517,-0.9518,-0.9518,-0.9519,-0.8817,-0.8823,-0.8878,-0.891,-0.8947,-0.8983,-0.8995,-0.9045,-0.9074,-0.9121,-0.9163,-0.9191,-0.9244,-0.9313,-0.9346,-0.9368,-0.9395,-0.9389,-0.9387,-0.9384,-0.9375,-0.9457,-0.9377,-0.9378,-0.9378,-0.9379,-0.9379,0,-0.8719,-0.8758,-0.8786,-0.8839,-0.8863,-0.891,-0.8956,-0.8973,-0.8997,-0.9042,-0.9073,-0.9109,-0.9143,-0.9205,-0.9244,-0.925,-0.9275,-0.9258,-0.9258,-0.9265,-0.935,-0.9349,-0.9237,-0.9237,-0.9237,-0.9237,-0.9237,-0.9237,-0.8671,-0.8683,-0.8721,-0.8752,-0.8791,-0.8818,-0.884,-0.8873,-0.8908,-0.8945,-0.8973,-0.9013,-0.9065,-0.9108,-0.914,-0.9158,-0.9168,-0.9143,-0.9167,-0.9246,-0.9259,-0.9272,-0.9271,-0.9145,-0.9145,-0.9081,-0.908,-0.9079]}]]